Regional Weather Roundup
Issued by NWS Kansas City/Pleasant Hill, MO

Home | Current Version | Previous Version | Text Only | Print | Product List | Glossary On
Versions: 1 2 3 4 5 6 7 8 9 10 11 12 13 14 15 16 17 18 19 20 21 22 23 24 25 26 27 28
000
ASUS43 KEAX 210710
RWREAX

WEATHER ROUNDUP FOR EASTERN KANSAS AND NORTHWEST MISSOURI
NATIONAL WEATHER SERVICE KANSAS CITY/PLEASANT HILL MO
100 AM CST SAT JAN 21 2017

KSZ040-057-103>105-MOZ028-029-037-043-210800-
...KANSAS CITY METROPOLITAN AREA...

CITY           SKY/WX    TMP DP  RH WIND       PRES   REMARKS
K.C. INTL      CLEAR     38  35  89 S8        29.41F WCI  32
K.C. DOWNTOWN  FOG       41  41 100 CALM      29.41F VSB 1/4
LEES SUMMIT    CLEAR     42  41  96 S9        29.42F
OLATHE - IXD   FOG       38  37  97 S6        29.43S VSB 1/4 WCI  33
OLATHE - OJC   CLEAR     38  38 100 S5        29.42F FOG     WCI  34
LAWRENCE       CLOUDY    38  38 100 SE7       29.42F FOG     WCI  33

$$

MOZ001>008-011>017-020>025-030>033-038>040-044>046-053-054-210800-
...NORTHERN AND CENTRAL MISSOURI...

CITY           SKY/WX    TMP DP  RH WIND       PRES   REMARKS
ST. JOSEPH     FOG       35  35 100 W5        29.41F VSB 1/4 WCI  31
MOSBY          FOG       43  43 100 SE6       29.42F VSB 1/4
WARRENSBURG    CLEAR     43  37  81 SE6       29.44F
WHITEMAN AFB   CLEAR     45  45 100 S8        29.44F
CLINTON        CLEAR     37  36  93 CALM      29.47F
SEDALIA        CLEAR     46  39  76 S8        29.48F
WARSAW         NOT AVBL
CHILLICOTHE      N/A     45  45 100 SE6       29.45F
KIRKSVILLE     FOG       46  46 100 S10       29.46F VSB 1/2

$$

MOZ041-047>049-056>058-063>065-088>090-097-210800-
...EASTERN AND SOUTHERN MISSOURI...

CITY           SKY/WX    TMP DP  RH WIND       PRES   REMARKS
ST. LOUIS INTL PTCLDY    53  49  86 S6        29.58F
SPIRIT OF STL  CLEAR     45  45 100 E7        29.57S FOG
COLUMBIA       CLEAR     50  44  80 S14       29.49F
JEFFERSON CITY CLEAR     47  42  83 SE7       29.51F
ROLLA          CLEAR     53  44  71 S14       29.54F
OSAGE BEACH    CLEAR     51  43  74 S10       29.53F
SPRINGFIELD    CLEAR     52  39  61 S14       29.53F
BRANSON        CLEAR     55  37  50 S7        29.59S
JOPLIN         CLEAR     56  39  53 S17       29.50F
WEST PLAINS    CLEAR     51  45  79 S6        29.62F

$$

IAZ060-094-KSZ022-034>040-054-083-096-NEZ052-066-093-210800-
...KANSAS...SOUTHEAST NEBRASKA AND IOWA...

CITY           SKY/WX    TMP DP  RH WIND       PRES   REMARKS
TOPEKA         CLOUDY    42  40  92 SW6       29.43S FOG
MANHATTAN      CLOUDY    43  41  93 SW6       29.43F FOG
EMPORIA        CLEAR     35  35 100 S9        29.43F WCI  28
CHANUTE        CLEAR     46  37  71 SW14      29.47R
WICHITA        CLEAR     35  35 100 W7        29.49S WCI  29
OMAHA          DRZL/FOG  41  37  86 CALM      29.39F VSB 1
LINCOLN        FOG       40  40 100 S3        29.40F VSB 1/4
FALLS CITY     FOG       45  45 100 S8        29.40F VSB 1/2
LAMONI         FOG       46  45  96 S8        29.41F VSB 1/4
DES MOINES     LGT RAIN  42  42 100 SE8       29.41F FOG

$$





USA.gov is the U.S. government's official web portal to all federal, state and local government web resources and services.